This demonstration page uses our WeatherBlox Daily Observations layout. Learn more.

Left ArrowRight Arrow

39.01783, -85.05884

Hourly Observations for March 26, 2022

Temp ( °F °C ) Dew Point ( °F °C ) Humidity (%) Winds ( mph kmh ) Pressure ( in mb ) Visibility ( mi km ) Precip ( " mm )
12:52 am 00:52 Partly Cloudy 37 2.8 35 1.7 93 93 WSW 7 11 29.78 1008 10 16 0.00 0.00
1:52 am 01:52 Partly Cloudy 39 3.9 30 -1.1 70 70 W 13 20 29.76 1008 10 16 0.00 0.00
2:52 am 02:52 Mostly Clear 38 3.3 27 -2.8 65 65 W 13 20 29.74 1007 10 16 0.00 0.00
3:52 am 03:52 Partly Cloudy 38 3.3 25 -3.9 60 60 WSW 8 13 29.71 1006 10 16 0.00 0.00
4:52 am 04:52 Cloudy 38 3.3 25 -3.9 60 60 W 16 26 29.69 1005 10 16 0.00 0.00
5:52 am 05:52 Cloudy 37 2.8 30 -1.1 76 76 NW 14 22 29.70 1006 10 16 0.00 0.00
6:38 am 06:38 Cloudy with Light Snow 36 2.2 32 0 86 86 W 16 26 29.74 1007 9 14 0.00 0.00
6:52 am 06:52 Cloudy with Light Snow 36 2.2 31 -0.6 82 82 W 14 22 29.70 1006 9 14 0.00 0.00
7:02 am 07:02 Cloudy with Light Snow 36 2.2 32 0 86 86 NW 16 26 29.74 1007 2 3 0.00 0.00
7:05 am 07:05 Cloudy with Light Snow 35 1.7 32 0 89 89 NW 15 24 29.75 1007 4 6 0.00 0.00
7:09 am 07:09 Cloudy with Light Snow 35 1.7 32 0 89 89 NW 14 22 29.75 1007 4 6 0.00 0.00
7:26 am 07:26 Mostly Cloudy 34 1.1 31 -0.6 89 89 NW 16 26 29.76 1008 9 14 0.00 0.00
7:52 am 07:52 Mostly Cloudy 34 1.1 31 -0.6 89 89 WNW 10 17 29.73 1007 10 16 0.00 0.00
8:52 am 08:52 Mostly Cloudy 35 1.7 29 -1.7 78 78 WNW 18 30 29.75 1007 10 16 0.00 0.00
9:31 am 09:31 Cloudy with Light Snow 35 1.7 28 -2.2 76 76 WNW 17 28 29.79 1009 10 16 0.00 0.00
9:52 am 09:52 Windy with Snow Likely 35 1.7 28 -2.2 76 76 WNW 22 35 29.76 1008 9 14 0.00 0.00
10:12 am 10:12 Cloudy 36 2.2 28 -2.2 73 73 WNW 20 31 29.80 1009 9 14 0.00 0.00
10:52 am 10:52 Cloudy 36 2.2 26 -3.3 67 67 WNW 21 33 29.79 1009 9 14 0.00 0.00
11:01 am 11:01 Cloudy with Light Snow 36 2.2 28 -2.2 73 73 W 13 20 29.83 1010 7 11 0.00 0.00
11:10 am 11:10 Windy with Snow Likely 36 2.2 27 -2.8 70 70 W 22 35 29.83 1010 9 14 0.00 0.00
11:20 am 11:20 Cloudy 36 2.2 26 -3.3 67 67 W 22 35 29.83 1010 9 14 0.00 0.00
11:52 am 11:52 Cloudy 36 2.2 25 -3.9 64 64 W 18 30 29.81 1010 10 16 0.00 0.00
11:54 am 11:54 Cloudy 36 2.2 25 -3.9 64 64 W 20 31 29.84 1010 10 16 0.00 0.00
12:32 pm 12:32 Windy with Snow Likely 36 2.2 26 -3.3 67 67 W 20 31 29.85 1011 10 16 0.00 0.00
12:52 pm 12:52 Cloudy with Light Snow 36 2.2 26 -3.3 67 67 W 18 30 29.83 1010 9 14 0.00 0.00
1:19 pm 13:19 Cloudy 37 2.8 25 -3.9 62 62 W 17 28 29.87 1011 9 14 0.00 0.00
1:52 pm 13:52 Cloudy 36 2.2 25 -3.9 64 64 W 20 31 29.84 1011 10 16 0.00 0.00
2:20 pm 14:20 Cloudy with Light Snow 37 2.8 26 -3.3 65 65 WNW 14 22 29.88 1012 10 16 0.00 0.00
2:52 pm 14:52 Windy with Snow Likely 37 2.8 26 -3.3 65 65 WNW 20 31 29.85 1011 9 14 0.00 0.00
3:52 pm 15:52 Cloudy 37 2.8 25 -3.9 62 62 W 16 26 29.86 1011 9 14 0.00 0.00
4:52 pm 16:52 Cloudy 37 2.8 24 -4.4 59 59 WNW 17 28 29.88 1012 10 16 0.00 0.00
5:52 pm 17:52 Cloudy 37 2.8 24 -4.4 59 59 WNW 22 35 29.91 1013 10 16 0.00 0.00
6:52 pm 18:52 Mostly Cloudy 36 2.2 21 -6.1 55 55 WNW 22 35 29.93 1014 10 16 0.00 0.00
7:52 pm 19:52 Mostly Cloudy 34 1.1 21 -6.1 59 59 WNW 16 26 29.95 1014 10 16 0.00 0.00
8:52 pm 20:52 Mostly Clear 32 0 18 -7.8 56 56 WNW 16 26 29.96 1015 10 16 0.00 0.00
9:52 pm 21:52 Clear 31 -0.6 19 -7.2 61 61 NW 13 20 29.99 1016 10 16 0.00 0.00
10:52 pm 22:52 Mostly Clear 30 -1.1 19 -7.2 64 64 NW 12 19 30.00 1016 10 16 0.00 0.00
11:52 pm 23:52 Cloudy 30 -1.1 19 -7.2 64 64 NW 18 30 30.01 1016 10 16 0.00 0.00

Powered by AerisWeather